Total_Precipitation_Accumulation
0.79 0.68 0.57 0.55 0.55 0.60 0.68 0.84 1.33 1.67 2.20 2.68 2.90 3.09 2.92 2.94 2.86 2.60 2.44 2.33 2.17 2.09 2.03 1.86 1.78 1.74 1.68 1.64 1.62 1.59 1.63 1.64 1.61 1.57 1.55 1.48 1.45 1.48 1.48 1.47 1.38 1.36 1.35 1.33
0.71 0.60 0.62 0.71 0.72 0.78 0.79 0.90 1.19 1.61 2.26 2.53 2.79 2.95 2.89 2.87 2.73 2.61 2.54 2.43 2.33 2.26 2.14 1.96 1.72 1.69 1.71 1.71 1.70 1.65 1.60 1.51 1.46 1.46 1.41 1.33 1.29 1.28 1.29 1.30 1.35 1.39 1.37 1.32
0.99 0.68 0.94 1.47 1.16 1.06 1.18 1.13 1.41 1.92 2.19 2.11 2.23 2.41 2.56 2.65 2.64 2.55 2.53 2.49 2.44 2.37 2.29 2.14 1.92 1.83 1.78 1.73 1.67 1.63 1.62 1.50 1.39 1.42 1.41 1.32 1.22 1.28 1.26 1.25 1.33 1.38 1.41 1.40
1.12 1.32 2.12 2.02 1.31 1.14 1.29 1.42 1.36 1.54 1.66 1.74 1.84 2.02 2.21 2.35 2.54 2.63 2.57 2.46 2.40 2.34 2.27 2.20 2.02 1.85 1.70 1.62 1.52 1.60 1.64 1.55 1.42 1.41 1.40 1.36 1.35 1.38 1.42 1.38 1.38 1.46 1.50 1.45
1.51 1.94 2.26 2.03 1.41 1.27 1.64 2.01 1.51 1.43 1.48 1.49 1.57 1.82 2.26 2.35 2.51 2.67 2.52 2.46 2.41 2.26 2.16 2.07 1.85 1.66 1.56 1.59 1.52 1.53 1.57 1.54 1.44 1.35 1.37 1.36 1.39 1.44 1.45 1.46 1.47 1.47 1.45 1.48
1.80 2.38 2.70 2.41 1.30 0.96 1.55 2.61 1.69 1.44 1.60 1.68 1.80 2.29 2.37 2.12 2.15 2.35 2.43 2.51 2.46 2.21 2.04 1.92 1.65 1.45 1.42 1.44 1.41 1.43 1.36 1.30 1.25 1.26 1.27 1.27 1.32 1.37 1.48 1.52 1.51 1.45 1.44 1.46
1.97 2.50 2.51 1.60 0.99 1.12 2.44 2.81 1.91 1.69 1.78 1.91 2.10 2.26 1.99 1.76 1.80 1.98 2.20 2.29 2.20 2.08 1.98 1.75 1.52 1.42 1.44 1.37 1.26 1.19 1.19 1.21 1.24 1.26 1.30 1.30 1.37 1.37 1.42 1.42 1.50 1.54 1.53 1.48
2.19 2.66 2.70 1.35 1.13 1.83 2.24 1.72 1.56 1.53 1.55 1.68 1.63 1.51 1.52 1.64 1.74 1.87 2.02 2.05 1.96 1.92 1.85 1.71 1.54 1.52 1.54 1.40 1.20 1.12 1.17 1.23 1.27 1.31 1.16 1.14 1.39 1.39 1.34 1.43 1.46 1.45 1.44 1.38
2.29 2.60 2.20 1.48 1.55 1.66 1.58 1.64 1.51 1.47 1.42 1.52 1.50 1.45 1.51 1.58 1.67 1.75 1.83 1.83 1.71 1.63 1.68 1.70 1.65 1.64 1.66 1.49 1.27 1.21 1.30 1.31 1.28 1.28 1.31 1.36 1.38 1.33 1.30 1.34 1.29 1.14 1.08 1.07
1.86 1.83 1.59 1.41 1.38 1.39 1.36 1.41 1.31 1.27 1.31 1.46 1.56 1.55 1.65 1.58 1.54 1.59 1.63 1.60 1.56 1.51 1.56 1.62 1.55 1.47 1.56 1.50 1.37 1.36 1.36 1.29 1.24 1.31 1.43 1.44 1.40 1.26 1.21 1.17 1.14 1.09 1.05 1.03
2.06 1.78 1.63 1.48 1.24 1.11 1.07 1.03 1.06 1.10 1.16 1.33 1.47 1.52 1.56 1.54 1.45 1.35 1.30 1.32 1.41 1.51 1.48 1.41 1.37 1.26 1.25 1.32 1.38 1.48 1.44 1.33 1.24 1.17 1.24 1.32 1.18 1.04 1.03 1.01 1.05 1.13 1.16 1.13
2.19 1.84 2.00 1.75 1.28 1.05 1.07 1.14 1.17 1.13 1.06 1.08 1.18 1.30 1.37 1.43 1.33 1.19 1.11 1.16 1.26 1.31 1.29 1.27 1.26 1.23 1.19 1.16 1.22 1.43 1.39 1.27 1.14 1.00 0.99 0.98 0.96 0.96 0.99 0.96 0.97 1.01 1.11 1.09
1.63 1.37 1.48 1.46 1.33 1.29 1.24 1.16 1.15 1.09 1.01 1.12 1.10 1.17 1.21 1.19 1.16 1.05 0.98 1.01 1.08 1.15 1.16 1.14 1.15 1.11 1.05 1.04 1.13 1.35 1.40 1.26 1.06 0.93 0.88 0.84 0.87 0.97 1.02 0.95 0.92 0.94 1.00 1.01
1.21 1.23 1.35 1.38 1.43 1.31 1.15 0.99 0.96 0.99 0.96 1.05 1.05 1.10 1.06 1.07 1.09 1.02 1.04 1.01 0.94 0.88 0.88 0.90 0.89 0.92 0.96 0.97 1.07 1.20 1.24 1.15 1.04 0.94 0.89 0.85 0.82 0.87 1.01 1.11 1.08 1.02 1.00 1.00
1.29 1.26 1.26 1.16 1.06 1.05 1.04 1.00 1.04 1.06 0.99 1.00 1.00 1.06 0.99 1.00 1.04 0.95 0.94 0.87 0.79 0.75 0.75 0.73 0.73 0.82 0.88 0.94 1.02 1.06 1.09 1.03 0.97 0.89 0.86 0.84 0.83 0.90 0.99 1.03 1.14 1.20 1.15 1.07
1.25 1.05 0.93 0.89 0.90 0.90 0.92 0.94 1.04 1.03 1.00 0.99 1.01 1.05 0.96 0.92 0.95 0.92 0.81 0.75 0.81 0.83 0.77 0.74 0.74 0.78 0.82 0.85 0.92 0.92 0.94 0.95 0.88 0.76 0.71 0.74 0.79 0.89 1.05 1.16 1.26 1.34 1.33 1.22
1.00 0.93 0.92 0.95 0.91 0.88 0.89 0.86 0.90 0.91 0.91 0.91 0.88 0.87 0.87 0.88 0.94 0.94 0.82 0.76 0.83 0.85 0.76 0.71 0.68 0.66 0.70 0.69 0.75 0.79 0.79 0.86 0.88 0.75 0.71 0.75 0.82 0.94 1.10 1.23 1.27 1.34 1.37 1.35
0.75 0.79 0.80 0.80 0.82 0.85 0.81 0.77 0.80 0.82 0.84 0.84 0.79 0.77 0.80 0.86 0.91 0.83 0.74 0.69 0.71 0.78 0.79 0.76 0.67 0.64 0.62 0.65 0.70 0.72 0.75 0.80 0.79 0.80 0.82 0.84 0.92 1.02 1.13 1.18 1.17 1.19 1.15 1.15
0.73 0.72 0.68 0.68 0.73 0.80 0.77 0.72 0.73 0.74 0.73 0.75 0.74 0.77 0.83 0.81 0.75 0.71 0.70 0.71 0.75 0.80 0.77 0.71 0.66 0.65 0.63 0.66 0.67 0.66 0.69 0.74 0.74 0.76 0.81 0.85 0.88 0.94 1.01 1.04 1.05 1.03 1.00 0.99
0.58 0.58 0.59 0.64 0.68 0.73 0.71 0.72 0.71 0.71 0.68 0.73 0.77 0.78 0.80 0.78 0.71 0.69 0.71 0.75 0.78 0.75 0.68 0.63 0.59 0.60 0.60 0.62 0.66 0.59 0.63 0.71 0.71 0.69 0.74 0.78 0.80 0.83 0.85 0.89 0.89 0.90 0.90 0.89
0.54 0.52 0.54 0.54 0.55 0.57 0.61 0.65 0.67 0.67 0.67 0.68 0.73 0.74 0.73 0.73 0.69 0.69 0.75 0.80 0.76 0.66 0.61 0.61 0.58 0.59 0.59 0.58 0.63 0.55 0.55 0.62 0.63 0.62 0.63 0.67 0.73 0.74 0.72 0.75 0.80 0.83 0.84 0.84
0.63 0.57 0.54 0.50 0.52 0.55 0.54 0.60 0.66 0.66 0.68 0.68 0.69 0.66 0.67 0.70 0.67 0.68 0.72 0.74 0.69 0.64 0.54 0.51 0.51 0.56 0.60 0.59 0.54 0.53 0.52 0.54 0.58 0.61 0.63 0.65 0.67 0.68 0.67 0.68 0.71 0.75 0.78 0.76
0.69 0.59 0.57 0.57 0.60 0.61 0.59 0.61 0.64 0.63 0.67 0.68 0.73 0.75 0.75 0.73 0.72 0.76 0.77 0.69 0.62 0.62 0.54 0.51 0.54 0.55 0.58 0.55 0.54 0.57 0.53 0.51 0.51 0.52 0.56 0.59 0.57 0.57 0.57 0.60 0.69 0.71 0.71 0.69
0.65 0.58 0.58 0.58 0.58 0.67 0.71 0.69 0.71 0.72 0.75 0.74 0.74 0.75 0.74 0.73 0.71 0.67 0.69 0.76 0.75 0.69 0.56 0.59 0.60 0.55 0.51 0.46 0.50 0.57 0.55 0.51 0.49 0.51 0.51 0.48 0.49 0.52 0.53 0.56 0.60 0.61 0.62 0.64
0.68 0.65 0.64 0.68 0.74 0.79 0.77 0.73 0.73 0.72 0.75 0.77 0.73 0.72 0.69 0.69 0.72 0.66 0.59 0.61 0.68 0.70 0.64 0.61 0.60 0.56 0.48 0.45 0.49 0.57 0.57 0.57 0.57 0.56 0.53 0.54 0.52 0.51 0.55 0.57 0.57 0.58 0.61 0.67
0.91 0.88 0.88 0.83 0.81 0.79 0.75 0.71 0.80 0.84 0.81 0.79 0.76 0.74 0.73 0.70 0.66 0.62 0.61 0.61 0.63 0.69 0.64 0.58 0.57 0.59 0.53 0.51 0.53 0.60 0.62 0.62 0.64 0.63 0.59 0.59 0.57 0.56 0.59 0.60 0.62 0.64 0.69 0.73
1.05 1.05 1.06 0.96 0.84 0.80 0.78 0.79 0.85 0.90 0.86 0.88 0.93 0.84 0.78 0.77 0.74 0.71 0.72 0.71 0.69 0.67 0.65 0.59 0.53 0.55 0.58 0.60 0.61 0.62 0.60 0.57 0.56 0.61 0.65 0.65 0.62 0.61 0.62 0.62 0.63 0.67 0.70 0.71